Wind_Speed
27 25 24 24 22 22 22 22 23 23 24 23 21 22 22 21 21 22 21 19 17 16 15 14 15 15 16 16 15 16 17 17 18 19 20 20 21 21 21 21 21 22
24 23 23 23 22 21 21 22 22 24 24 22 22 23 21 20 20 20 19 18 18 16 16 16 17 17 17 16 15 16 16 17 19 20 20 21 22 22 22 21 21 22
24 23 22 22 21 20 21 21 23 24 23 22 23 23 21 19 18 18 18 19 18 17 17 17 18 18 17 16 16 16 16 18 19 20 21 22 23 23 22 21 21 21
24 23 21 21 21 20 20 22 24 24 22 22 22 22 21 20 18 18 19 19 18 18 18 18 19 18 17 16 16 16 17 18 20 21 22 23 24 23 22 21 21 21
25 22 20 20 20 20 20 21 22 21 20 21 21 21 21 21 20 19 19 19 19 19 19 19 19 19 17 17 16 17 18 19 20 21 22 24 25 23 22 21 21 21
25 22 21 21 20 19 19 20 20 19 19 20 21 22 22 21 21 21 20 20 19 19 20 20 20 19 18 17 17 17 18 19 21 22 23 25 25 23 22 21 21 22
23 21 21 20 19 18 19 19 20 18 18 19 21 22 22 21 22 22 21 21 20 20 20 20 20 19 18 17 17 18 19 20 21 22 24 25 24 23 22 21 22 22
22 21 21 19 19 18 19 20 20 19 19 20 21 21 21 21 22 22 22 21 21 20 20 19 19 19 18 18 18 19 20 20 22 23 24 24 24 22 22 22 22 22
22 22 21 19 19 19 20 20 20 19 19 20 20 21 20 21 21 22 22 21 21 21 20 19 19 19 19 18 19 20 20 21 22 23 23 23 23 22 22 22 22 23
22 22 21 20 19 19 20 20 19 19 20 20 20 20 20 20 21 21 21 22 22 21 20 19 19 19 19 19 20 20 21 21 22 22 23 22 22 22 22 22 23 23
20 20 20 20 19 19 19 19 19 20 20 20 20 20 20 20 20 21 22 23 22 21 20 19 19 19 20 20 21 21 21 22 22 22 22 22 22 23 23 23 23 23
20 20 20 19 19 18 19 19 19 20 21 21 21 20 19 20 21 22 23 23 22 21 20 20 20 20 21 21 21 21 21 21 22 22 22 22 23 23 23 23 23 24
19 19 19 19 18 18 18 19 19 21 21 21 21 20 20 20 21 22 23 23 22 21 20 20 20 21 22 22 22 22 21 21 22 22 23 23 23 23 24 24 24 24
18 18 17 18 18 18 18 19 20 21 21 21 21 21 21 20 21 22 23 23 22 22 21 21 21 22 22 23 23 22 22 22 22 23 23 23 23 24 24 24 24 25
19 19 18 18 18 18 18 19 19 20 21 22 23 23 23 22 21 22 23 23 23 22 22 22 22 22 23 24 24 23 22 23 23 23 24 23 24 24 25 25 25 25
20 20 20 20 20 20 20 19 20 21 22 23 25 25 25 23 22 23 23 24 24 23 23 23 23 23 24 25 24 24 23 24 24 24 24 24 24 24 25 25 25 25
21 20 20 20 21 22 21 20 21 22 23 24 26 26 26 24 23 23 24 24 24 24 24 24 24 25 25 26 25 25 24 25 25 24 23 24 24 25 25 26 26 26
22 22 21 21 22 23 22 22 22 22 23 25 26 26 26 25 24 23 24 24 25 25 25 24 24 25 26 26 26 26 26 26 25 24 23 24 25 25 26 26 27 27
23 23 24 25 25 25 26 25 24 23 23 24 25 26 26 26 25 25 25 25 25 26 25 25 25 25 26 27 27 27 27 27 25 24 24 24 25 25 26 27 27 28
25 26 27 27 28 29 29 28 27 26 25 26 27 27 27 27 26 26 26 26 26 26 26 25 25 25 26 28 29 29 28 27 25 24 24 24 25 26 26 27 28 29
28 28 28 29 30 31 31 31 31 29 28 29 29 29 28 28 28 27 27 26 27 26 26 25 25 26 28 29 30 29 27 26 25 24 24 25 25 26 27 28 29 29
30 29 29 30 31 32 32 32 31 31 30 31 31 30 29 29 28 28 27 27 27 27 26 26 27 28 30 30 30 28 26 26 25 25 25 25 25 26 27 28 29 29
31 30 29 31 32 33 33 32 32 32 32 32 32 30 30 30 29 28 28 28 28 27 27 27 28 29 30 31 29 27 26 26 26 25 25 26 26 27 28 29 29 30
31 31 31 31 32 33 33 33 33 33 33 33 31 31 31 30 30 29 29 29 29 29 29 29 30 30 30 29 28 27 27 26 26 26 26 26 27 28 28 29 30 30
29 30 31 32 32 33 34 35 34 33 33 32 31 32 32 31 30 30 30 30 31 31 31 31 30 30 29 28 28 28 28 27 26 26 27 27 27 28 29 29 30 29
28 30 31 33 35 35 35 36 36 34 33 32 32 33 33 33 32 31 32 32 33 33 33 32 31 30 29 28 29 29 29 28 27 27 27 27 28 28 29 29 30 29
Wind_Direction
222 223 229 231 233 238 236 234 232 232 234 236 239 246 250 249 247 247 246 239 233 233 237 244 252 259 264 269 278 285 291 296 300 303 307 312 317 320 323 326 327 327
228 225 229 233 235 238 237 233 232 232 233 234 241 248 248 244 244 243 240 236 235 237 241 246 253 258 264 270 279 287 294 298 300 303 308 313 318 321 324 326 327 327
229 224 227 233 234 236 237 236 235 234 233 233 241 246 244 239 238 239 239 239 239 240 243 247 253 259 265 272 281 289 295 298 300 303 308 314 319 322 324 326 326 326
228 225 228 232 233 235 239 240 237 233 230 232 239 243 240 236 237 240 242 242 240 241 243 248 254 260 267 275 283 291 295 298 300 303 308 315 319 322 324 326 326 326
228 228 230 232 233 236 239 238 232 226 226 232 237 239 238 237 239 243 245 244 243 242 245 249 255 262 270 277 285 291 295 298 301 304 309 315 318 321 324 326 326 326
229 230 232 233 234 238 239 234 229 225 227 232 235 238 238 238 241 244 247 248 246 244 246 251 257 265 272 279 285 291 295 298 302 305 310 314 316 319 323 325 325 326
230 231 234 235 235 238 237 233 230 229 230 233 236 238 240 241 242 244 247 249 247 245 247 253 259 267 274 280 286 291 295 299 302 306 309 312 314 317 322 323 324 326
229 231 233 235 235 235 232 230 230 232 233 234 236 239 241 242 242 243 247 249 248 246 249 255 261 268 275 281 287 291 295 299 303 306 308 310 312 316 320 322 323 325
228 230 231 232 233 232 229 230 234 236 234 233 236 239 240 240 240 244 249 251 249 249 251 257 263 270 276 282 286 290 295 299 302 305 307 309 312 316 319 321 323 324
231 231 229 228 230 229 228 233 238 238 235 234 236 237 237 239 243 248 252 252 251 251 254 258 265 272 277 281 285 289 294 298 301 304 306 309 312 316 319 321 322 323
233 231 226 224 227 228 230 236 238 237 235 235 235 235 238 243 249 253 254 254 253 254 256 261 267 272 276 280 284 289 293 297 300 303 306 309 312 316 319 321 322 324
232 227 223 223 227 231 235 240 239 236 235 234 234 237 242 249 253 255 256 256 256 257 259 263 268 272 276 279 283 288 292 296 299 302 305 309 312 316 319 321 323 325
233 228 225 226 230 233 238 242 240 236 234 234 236 241 248 253 255 256 258 259 259 260 261 264 267 271 275 278 283 287 290 295 298 301 304 308 312 316 320 322 324 326
237 235 234 233 234 236 239 241 240 236 233 234 239 245 252 256 256 258 259 260 261 261 261 263 267 271 275 278 281 285 289 293 297 299 303 308 312 317 320 322 324 325
240 241 240 237 235 236 238 240 240 238 236 238 243 249 253 256 256 257 259 260 260 260 261 263 267 271 274 277 279 283 287 292 295 298 303 309 313 316 319 321 323 325
243 242 240 237 234 233 235 240 243 242 242 243 247 251 255 256 256 256 257 259 260 261 262 264 267 271 274 276 278 281 285 290 293 297 303 309 313 315 317 320 323 324
246 246 243 239 235 233 237 243 246 246 247 248 250 254 257 258 257 257 258 260 261 262 263 266 269 272 274 276 278 281 284 287 291 296 302 308 311 313 316 319 322 324
252 252 250 246 240 238 241 246 249 250 251 252 254 257 260 261 260 258 258 260 262 263 265 268 271 273 275 277 279 280 283 286 290 295 301 306 310 312 315 318 321 323
256 254 253 250 246 244 244 248 253 256 257 257 259 259 260 260 259 258 258 260 262 265 267 270 272 273 275 278 280 281 283 285 288 293 299 304 308 311 314 318 320 321
256 253 251 250 249 248 249 252 255 258 260 260 260 259 259 259 258 257 258 259 262 265 268 271 273 274 277 279 281 283 283 283 285 291 297 302 306 310 313 316 318 319
252 251 251 251 251 251 252 253 255 257 258 258 258 258 258 258 258 257 258 259 262 266 269 272 273 274 276 278 280 281 281 281 284 290 297 301 304 308 311 314 316 317
250 251 253 253 253 252 252 253 255 255 255 256 257 258 259 258 257 257 258 259 262 265 268 270 271 273 275 276 277 277 276 278 283 290 295 299 302 306 309 312 314 315
252 253 253 253 254 254 254 254 255 254 254 255 257 258 258 258 257 257 257 259 261 263 265 268 270 272 274 274 274 273 273 277 282 288 293 297 301 304 308 311 313 314
255 254 254 254 254 254 255 255 254 253 252 254 257 258 258 257 256 256 257 259 262 264 265 267 269 271 272 271 270 269 271 275 281 286 291 295 299 303 306 310 312 312
256 255 256 256 255 254 254 253 254 254 253 254 257 258 257 257 257 256 256 258 262 265 267 268 269 269 268 266 266 267 270 274 279 284 288 293 297 301 305 308 310 310
256 256 256 256 256 254 252 251 253 254 253 253 255 256 256 256 257 257 257 258 262 264 264 265 267 266 265 264 265 266 269 273 277 281 286 291 295 299 303 306 308 309
Height
5801 5803 5804 5804 5805 5806 5807 5808 5809 5810 5811 5812 5813 5814 5814 5815 5815 5816 5817 5817 5817 5817 5818 5817 5817 5817 5817 5817 5817 5817 5816 5816 5815 5814 5813 5812 5811 5810 5808 5807 5805 5803
5799 5801 5803 5803 5804 5804 5805 5806 5807 5808 5809 5810 5811 5811 5812 5813 5813 5814 5815 5816 5816 5816 5816 5816 5816 5815 5816 5816 5816 5815 5815 5814 5813 5812 5811 5811 5809 5808 5807 5805 5804 5802
5798 5799 5801 5802 5802 5803 5803 5804 5805 5806 5807 5808 5809 5809 5810 5811 5812 5813 5814 5814 5814 5815 5815 5815 5814 5814 5814 5814 5814 5814 5813 5812 5812 5811 5810 5809 5808 5806 5805 5803 5802 5800
5796 5797 5799 5799 5800 5801 5801 5802 5802 5803 5805 5806 5807 5808 5809 5810 5810 5811 5812 5812 5813 5813 5813 5813 5813 5812 5813 5813 5813 5812 5812 5811 5810 5809 5808 5807 5806 5804 5803 5801 5800 5799
5794 5795 5796 5797 5798 5799 5799 5800 5800 5802 5803 5804 5805 5806 5807 5808 5809 5810 5810 5811 5811 5812 5812 5811 5811 5811 5811 5811 5811 5811 5810 5809 5808 5807 5806 5805 5804 5802 5801 5800 5798 5796
5792 5793 5794 5795 5796 5797 5797 5798 5799 5800 5801 5802 5803 5804 5806 5806 5807 5808 5809 5809 5810 5810 5810 5810 5809 5809 5809 5810 5809 5809 5808 5807 5807 5806 5804 5803 5802 5800 5799 5798 5796 5794
5790 5791 5792 5793 5795 5795 5796 5797 5798 5799 5799 5800 5801 5803 5804 5804 5805 5806 5807 5808 5808 5809 5809 5808 5808 5808 5808 5808 5808 5807 5806 5805 5805 5803 5802 5801 5800 5799 5797 5796 5794 5792
5788 5790 5791 5792 5793 5794 5794 5795 5796 5797 5797 5798 5800 5801 5802 5803 5803 5804 5805 5806 5807 5807 5807 5807 5806 5806 5806 5806 5806 5805 5804 5803 5802 5801 5800 5799 5798 5797 5795 5793 5792 5790
5786 5788 5789 5790 5791 5792 5793 5793 5794 5795 5795 5797 5798 5799 5800 5801 5802 5803 5803 5804 5805 5805 5805 5805 5804 5804 5804 5804 5804 5803 5802 5801 5801 5800 5799 5797 5796 5795 5793 5791 5790 5788
5785 5786 5787 5788 5790 5790 5791 5791 5792 5793 5794 5795 5796 5797 5798 5799 5800 5801 5802 5802 5803 5803 5803 5803 5802 5802 5802 5802 5801 5801 5800 5799 5799 5798 5797 5795 5794 5792 5791 5789 5787 5786
5783 5784 5785 5786 5787 5788 5789 5789 5790 5791 5792 5793 5794 5795 5796 5797 5798 5799 5799 5800 5801 5801 5801 5801 5801 5801 5800 5800 5799 5799 5798 5797 5796 5795 5794 5793 5792 5790 5789 5787 5785 5783
5781 5781 5783 5784 5785 5786 5787 5787 5788 5789 5790 5791 5792 5793 5794 5795 5796 5797 5797 5798 5799 5799 5799 5799 5799 5799 5798 5798 5797 5797 5796 5795 5794 5793 5792 5791 5789 5788 5787 5785 5783 5781
5778 5779 5780 5782 5783 5784 5784 5785 5786 5787 5788 5789 5790 5791 5792 5793 5794 5795 5795 5796 5797 5797 5797 5797 5797 5796 5796 5795 5795 5794 5793 5793 5792 5791 5790 5789 5787 5786 5784 5783 5781 5779
5777 5778 5779 5780 5781 5782 5783 5784 5784 5785 5786 5788 5788 5789 5790 5791 5792 5792 5793 5794 5794 5795 5795 5795 5794 5794 5794 5793 5792 5792 5791 5790 5789 5788 5787 5786 5785 5784 5782 5780 5778 5776
5776 5777 5778 5778 5779 5780 5781 5782 5782 5783 5784 5785 5786 5786 5787 5788 5789 5790 5790 5791 5792 5792 5792 5792 5792 5791 5791 5790 5790 5789 5788 5788 5787 5786 5785 5784 5783 5782 5780 5778 5776 5774
5774 5775 5776 5776 5777 5778 5779 5780 5781 5781 5782 5783 5783 5784 5785 5786 5787 5787 5788 5788 5789 5789 5790 5790 5789 5789 5788 5788 5787 5786 5786 5785 5784 5784 5783 5782 5781 5779 5778 5776 5774 5771
5772 5773 5774 5774 5775 5776 5777 5778 5779 5779 5780 5781 5782 5782 5783 5784 5785 5785 5786 5786 5787 5787 5787 5787 5787 5786 5786 5785 5784 5784 5783 5782 5782 5781 5780 5779 5778 5777 5775 5773 5771 5769
5771 5771 5772 5772 5773 5774 5775 5776 5777 5778 5779 5780 5780 5780 5781 5782 5782 5783 5783 5784 5784 5785 5785 5784 5784 5783 5783 5782 5782 5781 5780 5780 5779 5779 5778 5777 5775 5774 5772 5770 5768 5766
5769 5769 5770 5770 5771 5772 5773 5774 5775 5776 5777 5778 5778 5778 5778 5779 5780 5780 5781 5781 5782 5782 5782 5782 5781 5781 5780 5780 5779 5778 5778 5777 5777 5776 5775 5774 5772 5771 5769 5768 5766 5764
5767 5767 5768 5768 5769 5770 5771 5772 5773 5774 5774 5775 5775 5775 5775 5776 5776 5777 5777 5778 5778 5778 5778 5779 5778 5778 5777 5777 5776 5775 5775 5774 5774 5773 5772 5771 5770 5768 5766 5765 5763 5761
5763 5764 5765 5766 5766 5767 5768 5769 5770 5770 5771 5771 5771 5771 5772 5773 5773 5773 5774 5775 5775 5775 5775 5775 5775 5775 5774 5774 5773 5772 5772 5771 5771 5770 5769 5768 5767 5765 5763 5762 5760 5759
5760 5761 5762 5763 5763 5764 5764 5765 5766 5767 5767 5767 5767 5768 5769 5769 5770 5770 5771 5772 5772 5772 5772 5772 5772 5771 5771 5770 5770 5769 5769 5768 5767 5767 5766 5765 5763 5762 5760 5758 5757 5756
5756 5758 5759 5760 5760 5760 5761 5762 5763 5763 5764 5764 5764 5765 5766 5766 5767 5767 5768 5768 5769 5769 5769 5768 5768 5768 5767 5767 5766 5766 5765 5765 5764 5763 5762 5761 5760 5759 5757 5755 5754 5752
5753 5754 5755 5756 5756 5757 5757 5758 5758 5759 5760 5760 5761 5762 5762 5763 5763 5764 5765 5765 5765 5765 5765 5765 5765 5764 5764 5763 5763 5762 5762 5762 5761 5760 5759 5758 5757 5755 5754 5752 5750 5749
5751 5751 5751 5752 5752 5752 5753 5754 5754 5755 5756 5757 5758 5758 5759 5759 5760 5761 5761 5762 5762 5762 5762 5761 5761 5760 5760 5760 5759 5759 5758 5758 5757 5757 5756 5755 5753 5752 5750 5749 5747 5745
5747 5747 5747 5747 5746 5747 5749 5749 5750 5751 5753 5753 5754 5754 5755 5756 5757 5757 5758 5758 5758 5758 5758 5757 5757 5757 5756 5756 5756 5755 5755 5754 5753 5753 5752 5751 5750 5748 5747 5745 5744 5742